This demonstration page uses our WeatherBlox Daily Observations layout. Learn more.

Hourly Observations for January 6, 2019

Temp ( °F °C ) Dew Point ( °F °C ) Humidity (%) Winds ( mph kmh ) Pressure ( in mb ) Visibility ( mi km ) Precip ( " mm )
12:15 am 00:15 Clear 43 6 37 3 81 81 Calm 29.91 1013 10 16.09344 0 0
12:35 am 00:35 Clear 43 6 37 3 81 81 Calm 29.91 1013 10 16.09344 0 0
12:55 am 00:55 Clear 43 6 37 3 81 81 SW 3 6 29.91 1013 10 16.09344 0 0
1:15 am 01:15 Clear 37 3 36 2 93 93 SSW 3 6 29.91 1013 10 16.09344 0 0
1:35 am 01:35 Clear 37 3 36 2 93 93 Calm 29.91 1013 10 16.09344 0 0
1:55 am 01:55 Clear 36 2 36 2 100 100 SSW 3 6 29.94 1014 10 16.09344 0 0
2:15 am 02:15 Clear 37 3 36 2 93 93 Calm 29.94 1014 10 16.09344 0 0
2:35 am 02:35 Clear 36 2 34 1 93 93 SW 5 7 29.94 1014 10 16.09344 0 0
2:55 am 02:55 Clear 34 1 34 1 100 100 SSW 5 7 29.94 1014 10 16.09344 0 0
3:15 am 03:15 Clear 36 2 34 1 93 93 Calm 29.94 1014 10 16.09344 0 0
3:35 am 03:35 Clear 34 1 34 1 100 100 SSW 3 6 29.94 1014 10 16.09344 0 0
3:55 am 03:55 Clear 34 1 34 1 100 100 Calm 29.94 1014 10 16.09344 0 0
4:15 am 04:15 Clear 34 1 34 1 100 100 SW 5 7 29.94 1014 10 16.09344 0 0
4:35 am 04:35 Clear 34 1 34 1 100 100 SW 5 7 29.94 1014 10 16.09344 0 0
5:15 am 05:15 Clear 37 3 36 2 93 93 SW 5 7 29.94 1014 10 16.09344 0 0
5:35 am 05:35 Clear 39 4 36 2 87 87 W 7 11 29.94 1014 10 16.09344 0 0
5:55 am 05:55 Clear 45 7 37 3 76 76 WNW 20 31 29.94 1014 10 16.09344 0 0
6:15 am 06:15 Clear 46 8 37 3 71 71 WNW 20 31 29.97 1015 10 16.09344 0 0
6:35 am 06:35 Clear 48 9 37 3 66 66 WNW 16 26 29.94 1014 10 16.09344 0 0
6:55 am 06:55 Clear 46 8 37 3 71 71 WNW 13 20 30 1016 10 16.09344 0 0
7:15 am 07:15 Clear 46 8 37 3 71 71 WNW 17 28 30 1016 10 16.09344 0 0
7:35 am 07:35 Sunny 46 8 37 3 71 71 WNW 17 28 30 1016 10 16.09344 0 0
7:55 am 07:55 Sunny 46 8 37 3 71 71 WNW 16 26 30.03 1017 10 16.09344 0 0
8:15 am 08:15 Sunny 48 9 37 3 66 66 WNW 16 26 30.03 1017 10 16.09344 0 0
8:35 am 08:35 Sunny 48 9 39 4 71 71 WNW 17 28 30.03 1017 10 16.09344 0 0
8:55 am 08:55 Sunny 50 10 39 4 67 67 WNW 16 26 30 1016 10 16.09344 0 0
9:15 am 09:15 Sunny 50 10 39 4 67 67 NW 21 33 30.03 1017 10 16.09344 0 0
9:35 am 09:35 Sunny 50 10 39 4 67 67 NW 25 41 30.03 1017 10 16.09344 0 0
9:55 am 09:55 Sunny 50 10 39 4 67 67 NW 23 37 30.03 1017 10 16.09344 0 0
10:15 am 10:15 Sunny 52 11 41 5 67 67 NW 18 30 30.06 1018 10 16.09344 0 0
10:35 am 10:35 Sunny 52 11 39 4 62 62 NNW 21 33 30.06 1018 10 16.09344 0 0
10:55 am 10:55 Sunny 52 11 39 4 62 62 NNW 30 48 30.06 1018 10 16.09344 0 0
11:15 am 11:15 Sunny 52 11 37 3 58 58 NNW 21 33 30.06 1018 10 16.09344 0 0
11:35 am 11:35 Sunny 52 11 37 3 58 58 NNW 23 37 30.06 1018 10 16.09344 0 0
11:55 am 11:55 Sunny 54 12 37 3 54 54 NNW 23 37 30.06 1018 10 16.09344 0 0
12:15 pm 12:15 Sunny 52 11 36 2 54 54 NNW 23 37 30.06 1018 10 16.09344 0 0
12:35 pm 12:35 Sunny 54 12 36 2 51 51 NNW 24 39 30.06 1018 10 16.09344 0 0
12:55 pm 12:55 Sunny 54 12 36 2 51 51 NNW 21 33 30.06 1018 10 16.09344 0 0
1:15 pm 13:15 Sunny 54 12 36 2 51 51 NW 24 39 30.06 1018 10 16.09344 0 0
1:35 pm 13:35 Sunny 54 12 34 1 47 47 NNW 24 39 30.06 1018 10 16.09344 0 0
1:55 pm 13:55 Sunny 54 12 34 1 47 47 NW 22 35 30.06 1018 10 16.09344 0 0
2:15 pm 14:15 Sunny 54 12 32 0 44 44 N 14 22 30.09 1019 10 16.09344 0 0
2:35 pm 14:35 Sunny 54 12 32 0 44 44 NNW 13 20 30.09 1019 10 16.09344 0 0
2:55 pm 14:55 Sunny 54 12 32 0 44 44 NNW 16 26 30.12 1020 10 16.09344 0 0
3:15 pm 15:15 Sunny 54 12 32 0 44 44 NNW 10 17 30.12 1020 10 16.09344 0 0
3:35 pm 15:35 Sunny 54 12 32 0 44 44 NNW 13 20 30.12 1020 10 16.09344 0 0
3:55 pm 15:55 Sunny 52 11 32 0 47 47 N 18 30 30.15 1021 10 16.09344 0 0
4:15 pm 16:15 Sunny 52 11 32 0 47 47 N 10 17 30.15 1021 10 16.09344 0 0
4:35 pm 16:35 Sunny 50 10 32 0 50 50 N 9 15 30.18 1022 10 16.09344 0 0
4:55 pm 16:55 Sunny 50 10 32 0 50 50 N 10 17 30.21 1023 10 16.09344 0 0
5:15 pm 17:15 Clear 46 8 32 0 57 57 N 8 13 30.21 1023 10 16.09344 0 0
5:35 pm 17:35 Clear 46 8 30 -1 53 53 N 13 20 30.21 1023 10 16.09344 0 0
5:55 pm 17:55 Clear 46 8 30 -1 53 53 N 7 11 30.24 1024 10 16.09344 0 0
6:15 pm 18:15 Clear 45 7 30 -1 57 57 N 5 7 30.24 1024 10 16.09344 0 0
6:35 pm 18:35 Clear 43 6 30 -1 61 61 NNW 8 13 30.27 1025 10 16.09344 0 0
6:55 pm 18:55 Clear 45 7 30 -1 57 57 N 3 6 30.27 1025 10 16.09344 0 0
7:15 pm 19:15 Clear 45 7 30 -1 57 57 N 6 9 30.3 1026 10 16.09344 0 0
7:35 pm 19:35 Clear 43 6 30 -1 61 61 N 7 11 30.3 1026 10 16.09344 0 0
7:55 pm 19:55 Clear 43 6 30 -1 61 61 NE 5 7 30.3 1026 10 16.09344 0 0
8:15 pm 20:15 Clear 43 6 30 -1 61 61 N 12 19 30.3 1026 10 16.09344 0 0
8:35 pm 20:35 Clear 43 6 28 -2 57 57 N 7 11 30.33 1027 10 16.09344 0 0
8:55 pm 20:55 Clear 43 6 28 -2 57 57 N 10 17 30.33 1027 10 16.09344 0 0
9:15 pm 21:15 Clear 41 5 28 -2 61 61 NNW 8 13 30.36 1028 10 16.09344 0 0
9:35 pm 21:35 Clear 41 5 28 -2 61 61 N 10 17 30.36 1028 10 16.09344 0 0
9:55 pm 21:55 Clear 41 5 28 -2 61 61 N 13 20 30.36 1028 10 16.09344 0 0
10:15 pm 22:15 Clear 41 5 28 -2 61 61 N 12 19 30.36 1028 10 16.09344 0 0
10:35 pm 22:35 Clear 41 5 28 -2 61 61 N 10 17 30.36 1028 10 16.09344 0 0
10:55 pm 22:55 Clear 41 5 28 -2 61 61 N 10 17 30.39 1029 10 16.09344 0 0
11:15 pm 23:15 Clear 39 4 28 -2 65 65 NNW 8 13 30.39 1029 10 16.09344 0 0
11:35 pm 23:35 Clear 39 4 28 -2 65 65 N 6 9 30.39 1029 10 16.09344 0 0
11:55 pm 23:55 Clear 37 3 28 -2 70 70 N 6 9 30.39 1029 10 16.09344 0 0

Powered by AerisWeather